ECO2054 SBPL-SBRF

Flight info

Callsign ECO2054
Flight time 1h 1m
Altitude 35000
Route VUGID DCT MUDAR
Aircraft B738/M-SDE2E3FGHIRWXY/LB1

Departure

Time 2026-04-23 12:24
Airport Senador Nilo Coelho Airport (SBPL)

Arrival

Time 2026-04-23 13:26
Airport Recife/Guararapes - Gilberto Freyre International Airport (SBRF)
Time Latitude Longitude Altitude Speed Heading
2026-04-23 11:59 -9.36519 -40.56739 1273 ft 0 kts 199°
2026-04-23 12:15 -9.36509 -40.56736 1272 ft 2 kts 200°
2026-04-23 12:16 -9.36498 -40.56726 1272 ft 2 kts 243°
2026-04-23 12:16 -9.36494 -40.56712 1272 ft 2 kts 276°
2026-04-23 12:16 -9.36496 -40.56704 1272 ft 0 kts 295°
2026-04-23 12:16 -9.36498 -40.56699 1272 ft 0 kts 291°
2026-04-23 12:19 -9.36494 -40.56710 1272 ft 4 kts 291°
2026-04-23 12:19 -9.36471 -40.56755 1272 ft 10 kts 293°
2026-04-23 12:19 -9.36408 -40.56797 1271 ft 14 kts 14°
2026-04-23 12:19 -9.36350 -40.56770 1270 ft 0 kts 20°
2026-04-23 12:20 -9.36327 -40.56766 1270 ft 7 kts 358°
2026-04-23 12:20 -9.36275 -40.56813 1270 ft 14 kts 291°
2026-04-23 12:20 -9.36233 -40.56931 1269 ft 20 kts 289°
2026-04-23 12:21 -9.36181 -40.57085 1267 ft 26 kts 289°
2026-04-23 12:21 -9.36116 -40.57278 1265 ft 29 kts 290°
2026-04-23 12:21 -9.36046 -40.57473 1263 ft 31 kts 288°
2026-04-23 12:21 -9.35976 -40.57671 1263 ft 28 kts 290°
2026-04-23 12:22 -9.35917 -40.57857 1263 ft 27 kts 288°
2026-04-23 12:22 -9.35860 -40.58026 1263 ft 22 kts 287°
2026-04-23 12:22 -9.35823 -40.58167 1263 ft 19 kts 287°
2026-04-23 12:22 -9.35804 -40.58286 1263 ft 14 kts 330°
2026-04-23 12:23 -9.35789 -40.58221 1263 ft 14 kts 119°
2026-04-23 12:23 -9.35803 -40.58188 1263 ft 0 kts 110°
2026-04-23 12:23 -9.35807 -40.58176 1263 ft 17 kts 109°
2026-04-23 12:24 -9.35928 -40.57823 1263 ft 87 kts 110°
2026-04-23 12:24 -9.36198 -40.57039 1269 ft 145 kts 109°
2026-04-23 12:24 -9.36559 -40.55969 1653 ft 163 kts 110°
2026-04-23 12:24 -9.36867 -40.54875 2250 ft 172 kts 92°
2026-04-23 12:25 -9.36580 -40.53714 3015 ft 172 kts 69°
2026-04-23 12:25 -9.36088 -40.52595 3526 ft 178 kts 70°
2026-04-23 12:25 -9.35595 -40.51360 3766 ft 200 kts 71°
2026-04-23 12:25 -9.35069 -40.49965 3922 ft 224 kts 71°
2026-04-23 12:26 -9.34495 -40.48433 4116 ft 241 kts 71°
2026-04-23 12:26 -9.33888 -40.46815 4539 ft 247 kts 71°
2026-04-23 12:26 -9.33279 -40.45190 5017 ft 249 kts 71°
2026-04-23 12:26 -9.32657 -40.43534 5506 ft 251 kts 71°
2026-04-23 12:27 -9.32038 -40.41883 5979 ft 253 kts 71°
2026-04-23 12:27 -9.31416 -40.40221 6446 ft 255 kts 71°
2026-04-23 12:27 -9.30785 -40.38538 6912 ft 256 kts 71°
2026-04-23 12:27 -9.30148 -40.36839 7377 ft 258 kts 71°
2026-04-23 12:28 -9.29510 -40.35138 7835 ft 260 kts 71°
2026-04-23 12:28 -9.28862 -40.33408 8297 ft 262 kts 71°
2026-04-23 12:28 -9.28212 -40.31676 8754 ft 264 kts 71°
2026-04-23 12:28 -9.27561 -40.29939 9207 ft 266 kts 71°
2026-04-23 12:29 -9.26902 -40.28181 9655 ft 268 kts 71°
2026-04-23 12:29 -9.26244 -40.26428 10097 ft 270 kts 71°
2026-04-23 12:29 -9.25564 -40.24615 10529 ft 276 kts 71°
2026-04-23 12:29 -9.24892 -40.22825 11261 ft 277 kts 71°
2026-04-23 12:30 -9.24198 -40.20973 11818 ft 290 kts 71°
2026-04-23 12:30 -9.23449 -40.18973 12000 ft 316 kts 71°
2026-04-23 12:30 -9.22636 -40.16816 12164 ft 341 kts 70°
2026-04-23 12:30 -9.21759 -40.14510 12699 ft 352 kts 70°
2026-04-23 12:31 -9.20882 -40.12201 13414 ft 357 kts 70°
2026-04-23 12:31 -9.19997 -40.09842 14189 ft 360 kts 71°
2026-04-23 12:31 -9.19114 -40.07477 14947 ft 364 kts 71°
2026-04-23 12:31 -9.18212 -40.05060 15729 ft 367 kts 71°
2026-04-23 12:32 -9.17309 -40.02650 16468 ft 370 kts 71°
2026-04-23 12:32 -9.16388 -40.00193 17198 ft 374 kts 71°
2026-04-23 12:32 -9.15463 -39.97729 17892 ft 377 kts 71°
2026-04-23 12:32 -9.14536 -39.95264 18580 ft 380 kts 71°
2026-04-23 12:33 -9.13591 -39.92750 19267 ft 383 kts 71°
2026-04-23 12:33 -9.12634 -39.90204 19926 ft 387 kts 71°
2026-04-23 12:33 -9.11679 -39.87662 20580 ft 390 kts 71°
2026-04-23 12:33 -9.10719 -39.85110 21226 ft 392 kts 71°
2026-04-23 12:34 -9.09746 -39.82520 21841 ft 395 kts 71°
2026-04-23 12:34 -9.08767 -39.79915 22449 ft 397 kts 71°
2026-04-23 12:34 -9.07788 -39.77302 23035 ft 399 kts 71°
2026-04-23 12:34 -9.06959 -39.74640 23593 ft 401 kts 75°
2026-04-23 12:35 -9.06221 -39.71919 24136 ft 404 kts 76°
2026-04-23 12:35 -9.05483 -39.69158 24683 ft 406 kts 75°
2026-04-23 12:35 -9.04739 -39.66399 25180 ft 409 kts 75°
2026-04-23 12:35 -9.03976 -39.63595 25675 ft 412 kts 75°
2026-04-23 12:36 -9.03215 -39.60811 26141 ft 415 kts 75°
2026-04-23 12:36 -9.02436 -39.57968 26604 ft 418 kts 74°
2026-04-23 12:36 -9.01659 -39.55144 27020 ft 422 kts 74°
2026-04-23 12:36 -9.00875 -39.52297 27441 ft 425 kts 74°
2026-04-23 12:37 -9.00075 -39.49395 27847 ft 429 kts 73°
2026-04-23 12:37 -8.99270 -39.46479 28226 ft 432 kts 73°
2026-04-23 12:37 -8.98458 -39.43542 28591 ft 436 kts 73°
2026-04-23 12:37 -8.97631 -39.40550 28962 ft 440 kts 73°
2026-04-23 12:38 -8.96816 -39.37604 29284 ft 444 kts 73°
2026-04-23 12:38 -8.95955 -39.34568 29647 ft 448 kts 73°
2026-04-23 12:38 -8.95119 -39.31624 29937 ft 452 kts 74°
2026-04-23 12:38 -8.94286 -39.28585 30344 ft 453 kts 74°
2026-04-23 12:39 -8.93453 -39.25533 30733 ft 455 kts 74°
2026-04-23 12:39 -8.92614 -39.22467 31195 ft 454 kts 74°
2026-04-23 12:39 -8.91772 -39.19399 31663 ft 454 kts 74°
2026-04-23 12:39 -8.90925 -39.16316 32133 ft 453 kts 74°
2026-04-23 12:40 -8.90083 -39.13255 32594 ft 452 kts 74°
2026-04-23 12:40 -8.89248 -39.10221 33043 ft 451 kts 74°
2026-04-23 12:40 -8.88412 -39.07185 33482 ft 450 kts 74°
2026-04-23 12:40 -8.87584 -39.04180 33907 ft 449 kts 74°
2026-04-23 12:41 -8.86739 -39.01113 34333 ft 448 kts 74°
2026-04-23 12:41 -8.85912 -38.98109 34740 ft 447 kts 74°
2026-04-23 12:41 -8.85076 -38.95073 35013 ft 447 kts 74°
2026-04-23 12:41 -8.84247 -38.92063 34999 ft 448 kts 74°
2026-04-23 12:42 -8.82861 -38.87026 35000 ft 442 kts 74°
2026-04-23 12:42 -8.80944 -38.80062 35000 ft 443 kts 74°
2026-04-23 12:43 -8.79300 -38.74081 35000 ft 444 kts 74°
2026-04-23 12:43 -8.77646 -38.68061 34999 ft 444 kts 75°
2026-04-23 12:44 -8.76003 -38.62078 34999 ft 443 kts 75°
2026-04-23 12:44 -8.74360 -38.56088 35000 ft 443 kts 75°
2026-04-23 12:45 -8.72721 -38.50114 35000 ft 443 kts 75°
2026-04-23 12:45 -8.71077 -38.44114 34999 ft 443 kts 75°
2026-04-23 12:46 -8.69434 -38.38116 34999 ft 443 kts 75°
2026-04-23 12:46 -8.67807 -38.32171 35000 ft 443 kts 74°
2026-04-23 12:47 -8.66187 -38.26251 35000 ft 443 kts 74°
2026-04-23 12:47 -8.64543 -38.20237 35000 ft 443 kts 74°
2026-04-23 12:48 -8.62904 -38.14238 35000 ft 443 kts 75°
2026-04-23 12:48 -8.61269 -38.08252 35000 ft 443 kts 75°
2026-04-23 12:49 -8.59629 -38.02244 35000 ft 443 kts 75°
2026-04-23 12:49 -8.58004 -37.96283 35000 ft 443 kts 75°
2026-04-23 12:50 -8.56578 -37.90242 35000 ft 443 kts 77°
2026-04-23 12:50 -8.55137 -37.84204 35000 ft 443 kts 76°
2026-04-23 12:51 -8.53606 -37.78186 35000 ft 443 kts 75°
2026-04-23 12:51 -8.52018 -37.72169 35000 ft 443 kts 75°
2026-04-23 12:52 -8.50412 -37.66195 35000 ft 443 kts 75°
2026-04-23 12:52 -8.48782 -37.60194 35000 ft 443 kts 75°
2026-04-23 12:53 -8.47153 -37.54225 35000 ft 443 kts 75°
2026-04-23 12:53 -8.45505 -37.48210 35000 ft 443 kts 75°
2026-04-23 12:54 -8.43868 -37.42246 35000 ft 443 kts 75°
2026-04-23 12:54 -8.42220 -37.36249 35000 ft 443 kts 75°
2026-04-23 12:55 -8.40592 -37.30332 35000 ft 443 kts 74°
2026-04-23 12:55 -8.38951 -37.24374 35000 ft 443 kts 74°
2026-04-23 12:56 -8.37297 -37.18372 35001 ft 443 kts 74°
2026-04-23 12:56 -8.35658 -37.12427 34999 ft 443 kts 74°
2026-04-23 12:57 -8.34008 -37.06450 35000 ft 443 kts 74°
2026-04-23 12:57 -8.32359 -37.00476 35000 ft 443 kts 74°
2026-04-23 12:58 -8.30711 -36.94514 34999 ft 443 kts 74°
2026-04-23 12:58 -8.29064 -36.88557 35000 ft 443 kts 74°
2026-04-23 12:59 -8.27407 -36.82568 35000 ft 443 kts 74°
2026-04-23 12:59 -8.25764 -36.76632 35000 ft 443 kts 74°
2026-04-23 13:00 -8.24108 -36.70655 35000 ft 443 kts 74°
2026-04-23 13:00 -8.22451 -36.64676 34999 ft 443 kts 74°
2026-04-23 13:01 -8.20351 -36.58886 35000 ft 443 kts 65°
2026-04-23 13:01 -8.17666 -36.53319 34999 ft 443 kts 64°
2026-04-23 13:02 -8.14947 -36.47821 34486 ft 438 kts 63°
2026-04-23 13:02 -8.13577 -36.45074 33640 ft 441 kts 63°
2026-04-23 13:02 -8.12211 -36.42346 32979 ft 439 kts 63°
2026-04-23 13:03 -8.10830 -36.39595 32239 ft 439 kts 63°
2026-04-23 13:03 -8.09469 -36.36889 31489 ft 439 kts 63°
2026-04-23 13:03 -8.08116 -36.34202 30751 ft 439 kts 63°
2026-04-23 13:03 -8.06785 -36.31563 30200 ft 433 kts 63°
2026-04-23 13:04 -8.05455 -36.28927 29626 ft 429 kts 63°
2026-04-23 13:04 -8.04107 -36.26259 29035 ft 425 kts 63°
2026-04-23 13:04 -8.02778 -36.23631 28457 ft 421 kts 63°
2026-04-23 13:04 -8.01453 -36.21009 27876 ft 417 kts 63°
2026-04-23 13:05 -8.00141 -36.18418 27298 ft 413 kts 63°
2026-04-23 13:05 -7.98852 -36.15870 26723 ft 409 kts 63°
2026-04-23 13:05 -7.97570 -36.13338 26150 ft 405 kts 63°
2026-04-23 13:05 -7.96305 -36.10841 25584 ft 402 kts 63°
2026-04-23 13:06 -7.93801 -36.05896 24455 ft 395 kts 63°
2026-04-23 13:06 -7.92551 -36.03431 23892 ft 391 kts 63°
2026-04-23 13:06 -7.91326 -36.01014 23332 ft 388 kts 63°
2026-04-23 13:07 -7.90094 -35.98584 22767 ft 385 kts 63°
2026-04-23 13:07 -7.88904 -35.96237 22216 ft 382 kts 63°
2026-04-23 13:07 -7.87698 -35.93859 21669 ft 378 kts 63°
2026-04-23 13:07 -7.86530 -35.91557 21134 ft 375 kts 63°
2026-04-23 13:08 -7.85342 -35.89214 20585 ft 372 kts 63°
2026-04-23 13:08 -7.84160 -35.86885 20036 ft 369 kts 63°
2026-04-23 13:08 -7.83004 -35.84607 19498 ft 366 kts 63°
2026-04-23 13:08 -7.81841 -35.82315 18954 ft 363 kts 63°
2026-04-23 13:09 -7.80711 -35.80090 18475 ft 354 kts 63°
2026-04-23 13:09 -7.79584 -35.77869 17978 ft 360 kts 63°
2026-04-23 13:09 -7.78458 -35.75653 17425 ft 348 kts 63°
2026-04-23 13:09 -7.77376 -35.73523 16914 ft 334 kts 63°
2026-04-23 13:10 -7.76338 -35.71479 16438 ft 327 kts 63°
2026-04-23 13:10 -7.75307 -35.69449 15957 ft 327 kts 63°
2026-04-23 13:10 -7.74280 -35.67375 15454 ft 326 kts 67°
2026-04-23 13:10 -7.73647 -35.65194 14954 ft 323 kts 83°
2026-04-23 13:11 -7.73699 -35.62986 14481 ft 320 kts 102°
2026-04-23 13:11 -7.74399 -35.60879 14003 ft 311 kts 113°
2026-04-23 13:11 -7.75286 -35.58906 13525 ft 301 kts 115°
2026-04-23 13:11 -7.76150 -35.57032 13078 ft 292 kts 115°
2026-04-23 13:12 -7.76988 -35.55206 12649 ft 287 kts 115°
2026-04-23 13:12 -7.77828 -35.53365 12214 ft 286 kts 115°
2026-04-23 13:12 -7.78652 -35.51557 11782 ft 285 kts 115°
2026-04-23 13:12 -7.79469 -35.49760 11346 ft 280 kts 115°
2026-04-23 13:13 -7.80267 -35.48005 10925 ft 273 kts 115°
2026-04-23 13:13 -7.81053 -35.46275 10594 ft 265 kts 115°
2026-04-23 13:13 -7.81810 -35.44608 10410 ft 260 kts 115°
2026-04-23 13:13 -7.82556 -35.42967 10320 ft 253 kts 115°
2026-04-23 13:14 -7.83286 -35.41358 10216 ft 255 kts 115°
2026-04-23 13:14 -7.84031 -35.39717 10024 ft 258 kts 115°
2026-04-23 13:14 -7.84774 -35.38081 9692 ft 256 kts 115°
2026-04-23 13:14 -7.85510 -35.36460 9363 ft 250 kts 115°
2026-04-23 13:15 -7.86219 -35.34896 9053 ft 242 kts 114°
2026-04-23 13:15 -7.86913 -35.33367 8756 ft 238 kts 114°
2026-04-23 13:15 -7.87601 -35.31852 8460 ft 237 kts 114°
2026-04-23 13:15 -7.88280 -35.30354 8162 ft 234 kts 114°
2026-04-23 13:16 -7.88946 -35.28887 7870 ft 228 kts 114°
2026-04-23 13:16 -7.89598 -35.27449 7589 ft 223 kts 114°
2026-04-23 13:16 -7.90238 -35.26038 7315 ft 222 kts 114°
2026-04-23 13:16 -7.90883 -35.24615 7032 ft 222 kts 114°
2026-04-23 13:17 -7.91515 -35.23222 6753 ft 219 kts 114°
2026-04-23 13:17 -7.92149 -35.21824 6475 ft 214 kts 114°
2026-04-23 13:17 -7.92762 -35.20470 6207 ft 209 kts 114°
2026-04-23 13:17 -7.93366 -35.19139 5946 ft 207 kts 114°
2026-04-23 13:18 -7.93959 -35.17830 5687 ft 207 kts 114°
2026-04-23 13:18 -7.94559 -35.16505 5449 ft 208 kts 114°
2026-04-23 13:18 -7.95158 -35.15184 5165 ft 208 kts 114°
2026-04-23 13:18 -7.95754 -35.13869 4934 ft 203 kts 114°
2026-04-23 13:19 -7.96334 -35.12589 4860 ft 201 kts 114°
2026-04-23 13:19 -7.96911 -35.11316 4796 ft 195 kts 114°
2026-04-23 13:19 -7.97468 -35.10087 4728 ft 192 kts 114°
2026-04-23 13:19 -7.98025 -35.08856 4662 ft 192 kts 114°
2026-04-23 13:20 -7.98480 -35.07601 4561 ft 194 kts 97°
2026-04-23 13:20 -7.98284 -35.06273 4365 ft 193 kts 70°
2026-04-23 13:20 -7.97819 -35.05009 4159 ft 191 kts 70°
2026-04-23 13:20 -7.97384 -35.03760 3951 ft 182 kts 71°
2026-04-23 13:21 -7.96985 -35.02568 3760 ft 178 kts 71°
2026-04-23 13:21 -7.96596 -35.01389 3592 ft 179 kts 71°
2026-04-23 13:21 -7.96210 -35.00212 3438 ft 174 kts 71°
2026-04-23 13:21 -7.95980 -34.99055 3366 ft 165 kts 93°
2026-04-23 13:22 -7.96376 -34.97977 3318 ft 169 kts 129°
2026-04-23 13:22 -7.97355 -34.97297 2978 ft 173 kts 164°
2026-04-23 13:22 -7.98490 -34.97043 2752 ft 164 kts 165°
2026-04-23 13:22 -7.99557 -34.96705 2719 ft 163 kts 161°
2026-04-23 13:23 -8.00623 -34.96311 2728 ft 167 kts 158°
2026-04-23 13:23 -8.01693 -34.95926 2716 ft 158 kts 162°
2026-04-23 13:23 -8.02738 -34.95581 2726 ft 156 kts 162°
2026-04-23 13:23 -8.03756 -34.95245 2712 ft 152 kts 162°
2026-04-23 13:24 -8.04742 -34.94920 2729 ft 151 kts 162°
2026-04-23 13:24 -8.05751 -34.94590 2631 ft 155 kts 163°
2026-04-23 13:24 -8.06788 -34.94284 2220 ft 154 kts 164°
2026-04-23 13:24 -8.07799 -34.93979 1761 ft 149 kts 163°
2026-04-23 13:25 -8.08760 -34.93654 1368 ft 146 kts 160°
2026-04-23 13:25 -8.09700 -34.93291 968 ft 146 kts 160°
2026-04-23 13:25 -8.10654 -34.92955 511 ft 148 kts 161°
2026-04-23 13:25 -8.11609 -34.92656 153 ft 141 kts 161°
2026-04-23 13:26 -8.12539 -34.92347 43 ft 143 kts 162°
2026-04-23 13:26 -8.13152 -34.92151 42 ft 32 kts 167°
2026-04-23 13:26 -8.13262 -34.92080 42 ft 15 kts 97°
2026-04-23 13:26 -8.13282 -34.91993 42 ft 11 kts 69°
2026-04-23 13:27 -8.13236 -34.91942 42 ft 8 kts 51°
2026-04-23 13:27 -8.13219 -34.91908 42 ft 0 kts 69°
2026-04-23 13:27 -8.13217 -34.91902 42 ft 0 kts 71°